FW4608 Weather Reports


Display with metric or nautical units.
time (UTC)temp
F
wind
direction
speed
MPH
gust
MPH
rain 1hr
in
rain 24hr
in
rain mn
in
humidity
%
barometer
mb
20260510163553 82 240 2.0 6.0 0.00 0.17 0.01 86 1016.7
20260510163055 82 281 0.0 4.0 0.00 0.17 0.01 87 1016.8
20260510162548 81 255 1.0 4.0 0.00 0.17 0.01 87 1016.8
20260510162043 81 321 0.0 3.0 0.00 0.17 0.01 88 1016.9
20260510161546 80 268 0.0 2.0 0.00 0.17 0.01 88 1016.9
20260510161040 79 321 0.0 4.0 0.01 0.17 0.01 89 1017.1
20260510160539 79 250 2.0 4.0 0.01 0.17 0.01 88 1017.2
20260510160043 79 219 0.0 3.0 0.01 0.17 0.01 89 1017.0
20260510155529 79 236 0.0 3.0 0.01 0.17 0.01 90 1016.9
20260510155030 78 238 0.0 1.0 0.01 0.17 0.01 91 1016.9
20260510154542 77 231 0.0 1.0 0.01 0.17 0.01 91 1016.9
20260510154024 77 259 0.0 2.0 0.01 0.17 0.01 91 1016.9
20260510153523 77 259 0.0 1.0 0.01 0.17 0.01 92 1016.9
20260510153041 77 248 0.0 1.0 0.01 0.17 0.01 92 1016.8
20260510152524 77 274 0.0 1.0 0.01 0.17 0.01 92 1016.7
20260510152020 77 228 0.0 4.0 0.01 0.17 0.01 93 1016.8
20260510151533 76 256 0.0 4.0 0.01 0.17 0.01 93 1016.8
20260510151015 77 266 0.0 2.0 0.00 0.16 0.00 94 1016.9
20260510150614 76 235 0.0 2.0 0.00 0.16 0.00 95 1016.8
20260510150007 76 243 0.0 1.0 0.00 0.16 0.00 95 1016.9
20260510145508 75 199 0.0 2.0 0.00 0.16 0.00 95 1016.9
20260510145007 75 235 0.0 2.0 0.00 0.16 0.00 95 1016.8
20260510144521 74 242 0.0 2.0 0.00 0.16 0.00 95 1016.7
20260510144054 74 220 0.0 2.0 0.00 0.16 0.00 95 1016.6
20260510144003 74 222 0.0 2.0 0.00 0.16 0.00 95 1016.7
20260510143556 74 216 0.0 1.0 0.00 0.16 0.00 95 1016.7
20260510143058 74 243 0.0 2.0 0.00 0.16 0.00 95 1016.6
20260510142553 74 251 0.0 1.0 0.00 0.16 0.00 95 1016.7
20260510142051 74 233 0.0 1.0 0.00 0.16 0.00 95 1016.5
20260510141552 74 233 0.0 1.0 0.00 0.16 0.00 95 1016.5
20260510141008 74 198 0.0 1.0 0.00 0.16 0.00 95 1016.6
20260510140557 74 160 0.0 1.0 0.00 0.16 0.00 95 1016.6
20260510140501 74 235 0.0 1.0 0.00 0.16 0.00 95 1016.6
20260510140058 74 300 0.0 1.0 0.00 0.16 0.00 95 1016.6
20260510135603 74 277 0.0 1.0 0.00 0.16 0.00 96 1016.5
20260510135102 74 187 0.0 1.0 0.00 0.16 0.00 96 1016.4
20260510134553 74 140 0.0 3.0 0.00 0.16 0.00 96 1016.4
20260510134053 74 243 0.0 3.0 0.00 0.16 0.00 96 1016.4
20260510133546 74 223 0.0 3.0 0.00 0.16 0.00 96 1016.4
20260510133047 73 241 0.0 3.0 0.00 0.16 0.00 96 1016.4
20260510132544 73 240 0.0 1.0 0.00 0.16 0.00 96 1016.3
20260510132043 73 240 0.0 1.0 0.00 0.16 0.00 96 1016.3
20260510131541 73 250 0.0 1.0 0.00 0.16 0.00 96 1016.2
20260510131142 73 250 0.0 1.0 0.00 0.16 0.00 96 1016.1
20260510130529 73 270 0.0 1.0 0.00 0.16 0.00 96 1016.0
20260510130031 73 270 0.0 2.0 0.00 0.16 0.00 96 1015.9
20260510125623 74 239 0.0 2.0 0.00 0.16 0.00 96 1016.0
20260510125023 74 221 0.0 0.0 0.00 0.16 0.00 96 1015.8
20260510124520 73 222 0.0 1.0 0.00 0.16 0.00 96 1015.7
20260510124015 73 347 0.0 1.0 0.00 0.16 0.00 96 1015.7
20260510123515 73 347 0.0 1.0 0.00 0.16 0.00 96 1015.6
20260510123003 73 347 0.0 0.0 0.00 0.16 0.00 96 1015.5
20260510122553 72 347 0.0 0.0 0.00 0.16 0.00 96 1015.5
20260510122049 72 347 0.0 0.0 0.00 0.16 0.00 96 1015.5
20260510121549 71 347 0.0 0.0 0.00 0.16 0.00 96 1015.5
20260510121048 71 347 0.0 0.0 0.00 0.16 0.00 96 1015.4
20260510120546 71 347 0.0 0.0 0.00 0.16 0.00 96 1015.3
20260510120042 71 347 0.0 0.0 0.00 0.16 0.00 96 1015.2
20260510115541 71 347 0.0 0.0 0.00 0.16 0.00 96 1015.1
20260510115041 71 347 0.0 0.0 0.00 0.16 0.00 96 1015.1
20260510114538 70 347 0.0 0.0 0.00 0.16 0.00 96 1015.1
20260510114037 70 347 0.0 0.0 0.00 0.16 0.00 96 1015.0
20260510113536 70 347 0.0 0.0 0.00 0.16 0.00 96 1015.0
20260510113034 70 347 0.0 0.0 0.00 0.16 0.00 96 1014.9
20260510112538 70 347 0.0 0.0 0.00 0.16 0.00 96 1014.9
20260510112035 70 347 0.0 0.0 0.00 0.16 0.00 95 1014.6
20260510111535 70 347 0.0 0.0 0.00 0.16 0.00 95 1014.7
20260510111031 69 347 0.0 0.0 0.00 0.16 0.00 95 1014.6
20260510110530 69 347 0.0 0.0 0.00 0.16 0.00 95 1014.6
20260510110032 69 347 0.0 0.0 0.00 0.16 0.00 95 1014.4
20260510105527 69 347 0.0 0.0 0.00 0.16 0.00 95 1014.3
20260510105029 69 347 0.0 0.0 0.00 0.16 0.00 95 1014.3
20260510104536 69 347 0.0 0.0 0.00 0.16 0.00 95 1014.2
20260510104025 69 347 0.0 0.0 0.00 0.16 0.00 95 1014.3
20260510103632 69 347 0.0 0.0 0.00 0.16 0.00 95 1014.3
20260510103023 69 347 0.0 0.0 0.00 0.16 0.00 95 1014.2
20260510102523 69 347 0.0 0.0 0.00 0.16 0.00 95 1014.1
20260510102026 69 347 0.0 0.0 0.00 0.16 0.00 95 1014.0
20260510101524 69 347 0.0 0.0 0.00 0.16 0.00 95 1014.1
20260510101023 69 347 0.0 0.0 0.00 0.16 0.00 95 1014.1
20260510100523 70 347 0.0 0.0 0.00 0.16 0.00 95 1014.0
20260510100020 70 347 0.0 0.0 0.00 0.16 0.00 95 1014.0
20260510095531 70 347 0.0 0.0 0.00 0.16 0.00 95 1013.9
20260510095021 70 347 0.0 0.0 0.00 0.16 0.00 95 1013.9
20260510094519 69 347 0.0 0.0 0.00 0.16 0.00 95 1013.8
20260510094017 69 347 0.0 0.0 0.00 0.16 0.00 95 1013.8
20260510093519 70 347 0.0 0.0 0.00 0.16 0.00 95 1013.6
20260510093016 70 347 0.0 0.0 0.00 0.16 0.00 95 1013.6
20260510092516 70 347 0.0 0.0 0.00 0.16 0.00 95 1013.5
20260510092018 70 347 0.0 0.0 0.00 0.16 0.00 95 1013.6
20260510091016 70 347 0.0 0.0 0.00 0.16 0.00 95 1013.4
20260510090115 70 347 0.0 0.0 0.00 0.16 0.00 95 1013.3
20260510085511 70 347 0.0 0.0 0.00 0.16 0.00 95 1013.2
20260510085010 70 347 0.0 0.0 0.00 0.16 0.00 95 1013.2
20260510084525 70 347 0.0 0.0 0.00 0.16 0.00 95 1013.1
20260510084010 70 347 0.0 0.0 0.00 0.16 0.00 95 1013.1
20260510083520 70 347 0.0 0.0 0.00 0.16 0.00 95 1013.0
20260510083012 70 347 0.0 0.0 0.00 0.16 0.00 95 1013.0
20260510082506 70 347 0.0 0.0 0.00 0.16 0.00 95 1013.0
20260510082059 70 347 0.0 0.0 0.00 0.16 0.00 95 1012.9
20260510082001 70 347 0.0 0.0 0.00 0.16 0.00 95 1012.9
20260510081618 70 347 0.0 0.0 0.00 0.16 0.00 95 1013.0
20260510081501 70 347 0.0 0.0 0.00 0.16 0.00 95 1013.0
20260510081101 70 347 0.0 0.0 0.00 0.16 0.00 95 1013.0
20260510080558 70 347 0.0 0.0 0.00 0.16 0.00 95 1013.0
20260510080105 70 347 0.0 0.0 0.00 0.16 0.00 95 1013.2
20260510075558 70 347 0.0 0.0 0.00 0.16 0.00 95 1013.1
20260510075056 70 347 0.0 0.0 0.00 0.16 0.00 95 1013.0
20260510074556 70 347 0.0 0.0 0.00 0.16 0.00 95 1013.0
20260510074058 70 347 0.0 0.0 0.00 0.16 0.00 95 1013.0
20260510073556 69 347 0.0 0.0 0.00 0.16 0.00 95 1013.0
20260510073101 70 347 0.0 0.0 0.00 0.16 0.00 95 1012.9
20260510072552 69 347 0.0 0.0 0.00 0.16 0.00 95 1012.9
20260510072052 70 347 0.0 0.0 0.00 0.16 0.00 95 1012.9
20260510071552 70 347 0.0 0.0 0.00 0.16 0.00 95 1012.7
20260510071051 70 347 0.0 0.0 0.00 0.16 0.00 95 1012.7
20260510070548 70 347 0.0 0.0 0.00 0.16 0.00 95 1012.6
20260510070047 70 347 0.0 0.0 0.00 0.16 0.00 95 1012.7
20260510065548 70 347 0.0 0.0 0.00 0.16 0.00 95 1012.7
20260510065045 70 347 0.0 0.0 0.00 0.16 0.00 95 1012.8
20260510064551 70 347 0.0 0.0 0.00 0.16 0.00 95 1012.9
20260510064044 70 347 0.0 0.0 0.00 0.16 0.00 95 1012.9
20260510063541 70 347 0.0 0.0 0.00 0.16 0.00 95 1013.1
20260510063040 70 347 0.0 0.0 0.00 0.16 0.00 95 1013.0
20260510062547 70 347 0.0 1.0 0.00 0.16 0.00 95 1013.0
20260510062039 70 347 0.0 1.0 0.00 0.16 0.00 95 1013.1
20260510061540 70 347 0.0 1.0 0.00 0.16 0.00 95 1013.1
20260510061037 70 92 0.0 0.0 0.00 0.16 0.00 95 1013.1
20260510060537 70 92 0.0 0.0 0.00 0.16 0.00 95 1013.3
20260510060039 70 92 0.0 0.0 0.00 0.16 0.00 95 1013.3
20260510055533 70 92 0.0 0.0 0.00 0.16 0.00 95 1013.4
20260510055030 70 92 0.0 0.0 0.00 0.16 0.00 95 1013.5
20260510054529 70 92 0.0 0.0 0.00 0.16 0.00 95 1013.5
20260510054026 70 92 0.0 0.0 0.00 0.16 0.00 95 1013.6
20260510053534 70 92 0.0 0.0 0.00 0.16 0.00 95 1013.6
20260510053030 70 92 0.0 0.0 0.00 0.16 0.00 95 1013.7
20260510052537 70 92 0.0 0.0 0.00 0.16 0.00 95 1013.8
20260510052024 70 92 0.0 0.0 0.00 0.16 0.00 95 1013.9
20260510051519 70 92 0.0 0.0 0.00 0.16 0.00 95 1014.0
20260510051018 70 92 0.0 0.0 0.00 0.16 0.00 95 1014.2
20260510050515 70 92 0.0 0.0 0.00 0.16 0.00 95 1014.3
20260510050016 70 92 0.0 0.0 0.00 0.16 0.00 95 1014.4
20260510045516 70 92 0.0 0.0 0.00 0.17 0.00 95 1014.4
20260510045015 70 92 0.0 0.0 0.00 0.17 0.00 95 1014.5
20260510044513 70 92 0.0 0.0 0.00 0.17 0.00 95 1014.4
20260510044016 70 92 0.0 0.0 0.00 0.17 0.00 95 1014.4
20260510043514 70 92 0.0 0.0 0.00 0.17 0.00 95 1014.4
20260510043011 70 92 0.0 0.0 0.00 0.17 0.00 95 1014.4
20260510042511 70 92 0.0 0.0 0.00 0.17 0.00 95 1014.4
20260510042010 70 92 0.0 0.0 0.00 0.17 0.00 95 1014.4
20260510041615 70 92 0.0 0.0 0.00 0.17 0.00 95 1014.5
20260510041013 70 92 0.0 0.0 0.00 0.17 0.00 95 1014.4
20260510040505 70 92 0.0 0.0 0.00 0.17 0.00 95 1014.4
20260510040005 70 92 0.0 0.0 0.00 0.19 0.17 95 1014.5
20260510035502 70 92 0.0 0.0 0.00 0.19 0.17 95 1014.4
20260510035002 70 92 0.0 0.0 0.00 0.19 0.17 95 1014.4
20260510034503 70 92 0.0 0.0 0.00 0.19 0.17 95 1014.4
20260510034001 71 92 0.0 0.0 0.00 0.19 0.17 95 1014.5
20260510033504 71 92 0.0 0.0 0.00 0.19 0.17 95 1014.5
20260510033103 71 92 0.0 0.0 0.00 0.19 0.17 95 1014.4
20260510032601 71 92 0.0 1.0 0.00 0.19 0.17 95 1014.6
20260510032059 71 92 0.0 1.0 0.00 0.19 0.17 95 1014.7
20260510031658 71 309 0.0 0.0 0.00 0.19 0.17 95 1014.6
20260510031058 71 309 0.0 0.0 0.00 0.19 0.17 95 1014.7
20260510030556 71 309 0.0 0.0 0.00 0.19 0.17 95 1014.6
20260510030058 71 309 0.0 0.0 0.00 0.19 0.17 95 1014.6
20260510030004 71 309 0.0 0.0 0.00 0.19 0.17 95 1014.6
20260510025557 71 309 0.0 0.0 0.00 0.19 0.17 95 1014.4
20260510025055 71 309 0.0 0.0 0.00 0.19 0.17 95 1014.3
20260510024554 71 309 0.0 0.0 0.00 0.19 0.17 95 1014.4
20260510024156 71 309 0.0 0.0 0.00 0.19 0.17 95 1014.4
20260510023556 71 309 0.0 0.0 0.00 0.19 0.17 95 1014.2
20260510023052 71 309 0.0 0.0 0.00 0.19 0.17 95 1014.1
20260510022551 71 309 0.0 0.0 0.00 0.19 0.17 95 1013.9
20260510022050 71 309 0.0 0.0 0.00 0.19 0.17 95 1013.9
20260510021552 71 309 0.0 0.0 0.00 0.19 0.17 95 1013.7
20260510021051 71 309 0.0 0.0 0.00 0.19 0.17 95 1013.8
20260510020659 71 309 0.0 0.0 0.00 0.19 0.17 95 1013.9
20260510020047 71 309 0.0 0.0 0.00 0.19 0.17 95 1013.7
20260510015547 71 309 0.0 0.0 0.00 0.19 0.17 95 1013.5
20260510015047 71 309 0.0 0.0 0.00 0.19 0.17 95 1013.4
20260510014546 71 309 0.0 0.0 0.00 0.19 0.17 95 1013.4
20260510014045 71 309 0.0 0.0 0.00 0.19 0.17 95 1013.3
20260510013547 71 309 0.0 0.0 0.00 0.19 0.17 95 1013.1
20260510013049 71 309 0.0 0.0 0.00 0.19 0.17 95 1013.3
20260510012547 71 309 0.0 0.0 0.00 0.19 0.17 95 1013.1
20260510012142 71 309 0.0 0.0 0.00 0.19 0.17 95 1013.2
20260510011542 71 309 0.0 0.0 0.00 0.19 0.17 95 1013.2
20260510011046 71 309 0.0 0.0 0.01 0.19 0.17 95 1013.0
20260510010537 71 309 0.0 0.0 0.01 0.19 0.17 95 1013.0
20260510010037 71 309 0.0 0.0 0.01 0.19 0.17 95 1013.1
20260510005537 71 309 0.0 0.0 0.02 0.19 0.17 95 1013.1
20260510005039 71 309 0.0 0.0 0.02 0.19 0.17 95 1012.9
20260510004533 71 309 0.0 0.0 0.02 0.19 0.17 95 1013.1
20260510004037 71 309 0.0 0.0 0.02 0.19 0.17 95 1012.9
20260510003537 71 309 0.0 0.0 0.02 0.19 0.17 95 1012.9
20260510003033 71 309 0.0 0.0 0.02 0.19 0.17 95 1013.1
20260510002532 71 309 0.0 0.0 0.02 0.19 0.17 95 1013.2
20260510002035 71 309 0.0 0.0 0.02 0.19 0.17 95 1013.3
20260510001531 71 309 0.0 0.0 0.02 0.19 0.17 95 1013.3
20260510001030 71 309 0.0 0.0 0.01 0.18 0.16 95 1013.5
20260510000531 71 309 0.0 0.0 0.01 0.18 0.16 95 1013.5
20260510000029 71 309 0.0 0.0 0.01 0.18 0.16 95 1013.4
20260509235531 71 309 0.0 0.0 0.00 0.17 0.15 94 1013.5
20260509235028 71 309 0.0 0.0 0.00 0.17 0.15 94 1013.5
20260509234536 71 309 0.0 1.0 0.00 0.17 0.15 94 1013.5
20260509234027 71 309 0.0 1.0 0.00 0.17 0.15 94 1013.3
20260509233529 72 343 0.0 0.0 0.00 0.17 0.15 94 1013.2
20260509233025 71 343 0.0 0.0 0.00 0.17 0.15 94 1013.2
20260509232524 72 343 0.0 0.0 0.00 0.17 0.15 94 1013.4
20260509232027 72 342 0.0 0.0 0.00 0.17 0.15 94 1013.2
20260509231528 72 343 0.0 0.0 0.00 0.17 0.15 94 1013.2
20260509231021 72 342 0.0 1.0 0.00 0.17 0.15 94 1013.4
20260509230520 72 343 0.0 1.0 0.00 0.17 0.15 94 1013.2
20260509230035 72 345 0.0 2.0 0.01 0.17 0.15 94 1013.2
20260509225518 72 321 0.0 2.0 0.01 0.17 0.15 94 1013.1
20260509225017 72 337 0.0 2.0 0.02 0.17 0.15 94 1013.1
20260509224518 72 337 0.0 2.0 0.02 0.17 0.15 94 1013.1
20260509224015 73 170 0.0 1.0 0.02 0.17 0.15 94 1013.1
20260509223522 73 356 0.0 1.0 0.02 0.17 0.15 94 1013.1
20260509223019 73 357 0.0 1.0 0.02 0.17 0.15 94 1013.0
20260509222513 73 357 0.0 1.0 0.02 0.17 0.15 94 1013.1
20260509222017 73 358 0.0 1.0 0.02 0.17 0.15 94 1013.1
20260509221513 73 357 0.0 1.0 0.02 0.17 0.15 94 1013.1
20260509221015 73 255 0.0 1.0 0.02 0.17 0.15 94 1013.0
20260509220511 73 255 0.0 1.0 0.01 0.16 0.14 94 1013.0
20260509220014 73 255 0.0 2.0 0.01 0.16 0.14 94 1013.1
20260509215516 73 324 0.0 2.0 0.01 0.16 0.14 94 1013.0
20260509215011 73 146 0.0 1.0 0.00 0.15 0.13 94 1013.0
20260509214510 73 208 0.0 1.0 0.00 0.15 0.13 94 1012.9
20260509214017 74 334 0.0 1.0 0.00 0.15 0.13 94 1012.7
20260509213510 74 155 0.0 0.0 0.00 0.15 0.13 94 1012.8
20260509213008 74 259 0.0 1.0 0.00 0.15 0.13 93 1012.9
20260509212608 74 259 0.0 1.0 0.00 0.15 0.13 93 1012.8
20260509212007 74 108 0.0 1.0 0.00 0.15 0.13 94 1012.8
20260509211508 74 252 0.0 2.0 0.00 0.15 0.13 94 1012.9
20260509211007 74 326 0.0 2.0 0.00 0.15 0.13 94 1012.9
20260509210506 75 235 0.0 0.0 0.00 0.15 0.13 94 1012.8
20260509210004 74 235 0.0 1.0 0.00 0.15 0.13 94 1012.7
20260509205503 74 235 0.0 2.0 0.00 0.15 0.13 93 1012.6
20260509205005 75 233 0.0 2.0 0.00 0.15 0.13 93 1012.7
20260509204504 75 205 0.0 1.0 0.00 0.15 0.13 93 1012.6
20260509204002 75 269 0.0 1.0 0.07 0.15 0.13 93 1012.6
20260509203601 75 269 0.0 1.0 0.09 0.15 0.13 93 1012.7
20260509203100 75 282 0.0 1.0 0.09 0.15 0.13 93 1012.7
20260509203008 75 239 0.0 0.0 0.09 0.15 0.13 93 1012.7
20260509202502 75 225 0.0 0.0 0.09 0.15 0.13 93 1012.6
20260509202102 75 225 0.0 0.0 0.09 0.15 0.13 93 1012.6
20260509201600 75 225 0.0 0.0 0.10 0.15 0.13 93 1012.5
20260509201001 75 229 0.0 0.0 0.10 0.15 0.13 93 1012.6
20260509200557 75 229 0.0 1.0 0.10 0.15 0.13 93 1012.5
20260509200108 75 229 0.0 1.0 0.10 0.15 0.13 93 1012.7
20260509200003 75 229 0.0 1.0 0.10 0.15 0.13 92 1012.7
20260509195558 75 245 0.0 1.0 0.10 0.15 0.13 92 1012.5
20260509195055 75 311 0.0 2.0 0.11 0.15 0.13 91 1012.5
20260509194555 76 228 0.0 2.0 0.11 0.15 0.13 91 1012.4
20260509194057 76 299 0.0 1.0 0.06 0.10 0.08 90 1012.8
20260509193607 77 258 0.0 1.0 0.03 0.06 0.04 90 1012.7
20260509192558 77 260 0.0 1.0 0.03 0.06 0.04 90 1012.7
20260509192058 77 266 0.0 1.0 0.03 0.06 0.04 90 1012.7
20260509191550 77 266 0.0 1.0 0.02 0.05 0.03 90 1012.7
20260509191053 78 266 0.0 0.0 0.02 0.05 0.03 90 1012.6
20260509190546 78 265 0.0 0.0 0.02 0.05 0.03 90 1012.5
20260509190056 78 269 0.0 0.0 0.02 0.05 0.03 90 1012.6
20260509185548 78 269 0.0 0.0 0.02 0.05 0.03 89 1012.7
20260509184614 78 269 0.0 0.0 0.01 0.04 0.02 87 1012.6
20260509184045 79 269 0.0 0.0 0.01 0.04 0.02 87 1012.7
20260509183547 79 269 0.0 2.0 0.00 0.03 0.01 86 1012.7
20260509183042 79 256 0.0 2.0 0.00 0.03 0.01 85 1012.8
20260509182546 80 265 0.0 1.0 0.00 0.03 0.01 85 1013.0
20260509182044 80 266 0.0 3.0 0.00 0.03 0.01 84 1012.7
20260509181547 80 248 0.0 3.0 0.00 0.03 0.01 83 1013.0
20260509181040 80 255 0.0 2.0 0.00 0.03 0.01 83 1013.0
20260509180539 81 171 0.0 2.0 0.00 0.03 0.01 82 1013.0
20260509180037 81 260 0.0 2.0 0.00 0.03 0.01 82 1013.0
20260509175541 81 236 0.0 3.0 0.00 0.03 0.01 82 1013.0
20260509175036 82 242 1.0 3.0 0.00 0.03 0.01 83 1013.0
20260509174538 82 231 0.0 3.0 0.00 0.03 0.01 81 1013.0
20260509174035 82 321 0.0 3.0 0.00 0.03 0.01 83 1013.1
20260509173536 82 252 1.0 3.0 0.00 0.03 0.01 82 1013.1
20260509173036 82 237 0.0 3.0 0.00 0.03 0.01 84 1013.1
20260509172531 81 274 0.0 3.0 0.00 0.03 0.01 84 1013.1
20260509172031 81 228 0.0 3.0 0.00 0.03 0.01 84 1013.1
20260509171532 81 101 0.0 2.0 0.00 0.03 0.01 83 1013.0
20260509171026 81 248 0.0 3.0 0.00 0.03 0.01 84 1013.0
20260509170525 80 292 0.0 3.0 0.00 0.03 0.01 84 1013.2
20260509170029 80 230 0.0 3.0 0.00 0.03 0.01 84 1013.3
20260509165523 80 285 0.0 1.0 0.00 0.03 0.01 84 1013.2
20260509165136 81 241 0.0 1.0 0.00 0.03 0.01 84 1013.3
20260509164518 81 172 0.0 0.0 0.00 0.03 0.01 84 1013.3
20260509164019 80 159 0.0 1.0 0.00 0.03 0.01 85 1013.4